User: anonymous   Login
Location: Unspecified
(0.0000°N, 0.0000°E)
Time: 10:18:15
(UTC+00:00)
Language:

XW-2B - Orbit

View from above orbital plane
View from above orbital plane
View from above satellite
View from above satellite

Ground track
Ground track

The orbit data is extracted from the following two-line orbital elements,

1 40911U 15049N   21340.94812708  .00002272  00000-0  11632-3 0  9992
2 40911  97.4885 341.7632 0012415 311.9083 104.5380 15.17578578343647
Epoch (UTC): 06 December 2021 22:45:18
Eccentricity: 0.0012415
inclination: 97.4885°
perigee height: 504 km
apogee height: 522 km
right ascension of ascending node: 341.7632°
argument of perigee: 311.9083°
revolutions per day: 15.17578578
mean anomaly at epoch: 104.5380°
orbit number at epoch: 34364

The dashed part of the orbit path shows where the satellite is in the earth's shadow,  

DLR